Starlink 3896

operational
NORAD ID: 52456 Int'l Des: 2022-049 Owner: SPXS Country: US Constellation: starlink
LEOCIRCULAR

关于 Starlink 3896

正在加载描述...

实时位置

正在加载3D地球...

即将过境

高度历史

Altitude vs Time

uPlot chart will show altitude changes over time

两行轨道根数

1 52456U 22049F 25258.09573633 .00000076 00000-0 22887-4 0 9991
2 52456 53.2167 137.3913 0001438 84.2456 275.8700 15.08835118185609
Epoch: Sep 15, 2025 • Age: 28 hours

当前状态

高度 540.7 km
速度 7.60 km/s
星下点 29.07°N, 156.94°W
发射日期 May 6, 2022
运行时间 3.3 years
类型 internet

技术详情

分类 Payload
质量 297.00 kg
干质量 220.00 kg
总质量 297.00 kg
长度 0.20 m
直径 2.80 m
跨度 9.00 m
形状 Box + pan
制造商 SPXS
平台类型 Starlink
阶段状态 In Orbit
所有者/国家 SPXS/US

大型星座

Loading constellations...